FW0478 Weather Reports


Display with metric or nautical units.
time (UTC)temp
F
wind
direction
speed
MPH
gust
MPH
rain 1hr
in
rain 24hr
in
rain mn
in
humidity
%
barometer
mb
20190523131347 69 18 0.0 2.0 0.00 0.00 0.00 87 1012.9
20190523130845 69 17 0.0 2.0 0.00 0.00 0.00 87 1012.9
20190523130346 69 23 0.0 1.0 0.00 0.00 0.00 86 1012.8
20190523125846 69 23 0.0 1.0 0.00 0.00 0.00 86 1012.7
20190523125346 69 20 0.0 2.0 0.00 0.00 0.00 86 1012.7
20190523124846 69 342 0.0 2.0 0.00 0.00 0.00 85 1012.6
20190523124345 68 49 0.0 1.0 0.00 0.00 0.00 85 1012.6
20190523123845 68 343 0.0 1.0 0.00 0.00 0.00 85 1012.8
20190523123348 68 342 0.0 1.0 0.00 0.00 0.00 85 1012.8
20190523122846 68 4 0.0 1.0 0.00 0.00 0.00 85 1012.8
20190523122346 68 4 0.0 1.0 0.00 0.00 0.00 85 1012.7
20190523121842 68 4 0.0 1.0 0.00 0.00 0.00 85 1012.6
20190523121343 67 357 0.0 1.0 0.00 0.00 0.00 85 1012.7
20190523120842 67 357 0.0 1.0 0.00 0.00 0.00 85 1012.8
20190523120342 67 357 0.0 1.0 0.00 0.00 0.00 84 1012.8
20190523115843 67 357 0.0 1.0 0.00 0.00 0.00 85 1012.7
20190523115342 67 357 0.0 1.0 0.00 0.00 0.00 84 1012.6
20190523114842 67 53 0.0 1.0 0.00 0.00 0.00 85 1012.5
20190523114342 67 30 0.0 1.0 0.00 0.00 0.00 85 1012.4
20190523113843 67 40 0.0 1.0 0.00 0.00 0.00 87 1012.3
20190523113343 66 43 0.0 1.0 0.00 0.00 0.00 88 1012.4
20190523112840 65 43 0.0 1.0 0.00 0.00 0.00 89 1012.3
20190523112340 65 43 0.0 1.0 0.00 0.00 0.00 90 1012.1
20190523111841 64 43 0.0 0.0 0.00 0.00 0.00 91 1012.2
20190523111344 64 43 0.0 0.0 0.00 0.00 0.00 92 1012.2
20190523110842 64 43 0.0 0.0 0.00 0.00 0.00 92 1012.2
20190523110340 63 43 0.0 0.0 0.00 0.00 0.00 92 1012.1
20190523105840 63 43 0.0 0.0 0.00 0.00 0.00 92 1012.0
20190523105341 63 43 0.0 0.0 0.00 0.00 0.00 93 1011.9
20190523104841 63 43 0.0 0.0 0.00 0.00 0.00 93 1012.0
20190523104341 63 43 0.0 0.0 0.00 0.00 0.00 93 1012.0
20190523103838 62 43 0.0 0.0 0.00 0.00 0.00 93 1012.0
20190523103338 62 43 0.0 0.0 0.00 0.00 0.00 94 1011.9
20190523102838 62 43 0.0 0.0 0.00 0.00 0.00 94 1011.9
20190523102338 62 43 0.0 0.0 0.00 0.00 0.00 94 1011.9
20190523101839 62 43 0.0 0.0 0.00 0.00 0.00 94 1011.9
20190523101338 61 43 0.0 0.0 0.00 0.00 0.00 93 1011.8
20190523100838 61 43 0.0 0.0 0.00 0.00 0.00 93 1011.8
20190523100340 61 43 0.0 0.0 0.00 0.00 0.00 93 1011.7
20190523095838 61 43 0.0 0.0 0.00 0.00 0.00 93 1011.7
20190523095338 61 43 0.0 0.0 0.00 0.00 0.00 93 1011.7
20190523094837 61 43 0.0 0.0 0.00 0.00 0.00 93 1011.6
20190523094339 61 43 0.0 0.0 0.00 0.00 0.00 93 1011.5
20190523093837 61 43 0.0 0.0 0.00 0.00 0.00 93 1011.5
20190523093336 61 43 0.0 0.0 0.00 0.00 0.00 93 1011.5
20190523092837 61 43 0.0 0.0 0.00 0.00 0.00 93 1011.5
20190523092336 62 43 0.0 0.0 0.00 0.00 0.00 93 1011.6
20190523091836 62 43 0.0 0.0 0.00 0.00 0.00 92 1011.6
20190523091335 62 43 0.0 0.0 0.00 0.00 0.00 92 1011.5
20190523090834 62 43 0.0 0.0 0.00 0.00 0.00 93 1011.5
20190523090336 62 43 0.0 0.0 0.00 0.00 0.00 93 1011.5
20190523085836 62 43 0.0 0.0 0.00 0.00 0.00 92 1011.3
20190523085335 62 43 0.0 0.0 0.00 0.00 0.00 92 1011.3
20190523084835 62 43 0.0 0.0 0.00 0.00 0.00 92 1011.2
20190523084335 62 43 0.0 0.0 0.00 0.00 0.00 92 1011.3
20190523083835 62 43 0.0 0.0 0.00 0.00 0.00 92 1011.3
20190523083336 62 43 0.0 0.0 0.00 0.00 0.00 92 1011.3
20190523082835 62 43 0.0 0.0 0.00 0.00 0.00 92 1011.2
20190523082336 62 43 0.0 0.0 0.00 0.00 0.00 92 1011.1
20190523081834 62 43 0.0 0.0 0.00 0.00 0.00 91 1011.2
20190523081332 62 43 0.0 0.0 0.00 0.00 0.00 91 1011.0
20190523080832 62 43 0.0 0.0 0.00 0.00 0.00 91 1011.0
20190523080332 62 43 0.0 0.0 0.00 0.00 0.00 91 1011.0
20190523075831 62 43 0.0 0.0 0.00 0.00 0.00 91 1011.0
20190523075332 62 43 0.0 0.0 0.00 0.00 0.00 91 1011.0
20190523074832 62 43 0.0 0.0 0.00 0.00 0.00 90 1010.9
20190523074333 62 43 0.0 0.0 0.00 0.00 0.00 90 1011.0
20190523073832 62 43 0.0 0.0 0.00 0.00 0.00 90 1011.0
20190523073331 62 43 0.0 0.0 0.00 0.00 0.00 89 1011.1
20190523072830 63 43 0.0 0.0 0.00 0.00 0.00 89 1011.1
20190523072330 63 43 0.0 0.0 0.00 0.00 0.00 89 1011.1
20190523071830 63 43 0.0 0.0 0.00 0.00 0.00 89 1011.1
20190523071331 63 43 0.0 0.0 0.00 0.00 0.00 88 1011.0
20190523070831 63 43 0.0 0.0 0.00 0.00 0.00 88 1011.0
20190523070330 64 43 0.0 0.0 0.00 0.00 0.00 88 1011.1
20190523065830 64 43 0.0 0.0 0.00 0.00 0.00 87 1011.1
20190523065330 64 43 0.0 0.0 0.00 0.00 0.00 86 1011.2
20190523064829 64 43 0.0 0.0 0.00 0.00 0.00 86 1011.4
20190523064331 64 43 0.0 0.0 0.00 0.00 0.00 86 1011.5
20190523063831 65 43 0.0 0.0 0.00 0.00 0.00 85 1011.5
20190523063329 65 43 0.0 0.0 0.00 0.00 0.00 84 1011.6
20190523062827 65 43 0.0 0.0 0.00 0.00 0.00 85 1011.6
20190523062328 65 43 0.0 0.0 0.00 0.00 0.00 84 1011.7
20190523061829 65 43 0.0 0.0 0.00 0.00 0.00 83 1011.7
20190523061328 65 43 0.0 0.0 0.00 0.00 0.00 83 1011.7
20190523060828 66 43 0.0 0.0 0.00 0.00 0.00 82 1011.7
20190523060329 66 43 0.0 0.0 0.00 0.00 0.00 82 1011.7
20190523055829 66 43 0.0 0.0 0.00 0.00 0.00 81 1011.7
20190523055328 67 43 0.0 0.0 0.00 0.00 0.00 80 1011.7
20190523054829 67 43 0.0 0.0 0.00 0.00 0.00 79 1011.7
20190523054329 67 43 0.0 0.0 0.00 0.00 0.00 79 1011.7
20190523053829 67 43 0.0 0.0 0.00 0.00 0.00 78 1011.8
20190523053329 68 43 0.0 0.0 0.00 0.00 0.00 76 1011.8
20190523052829 69 43 0.0 0.0 0.00 0.00 0.00 76 1011.8
20190523052328 69 43 0.0 0.0 0.00 0.00 0.00 74 1011.7
20190523051827 69 43 0.0 1.0 0.00 0.00 0.00 73 1011.8
20190523051328 69 43 0.0 3.0 0.00 0.00 0.00 73 1011.7
20190523050829 70 43 0.0 3.0 0.00 0.00 0.00 72 1011.6
20190523050327 70 9 0.0 4.0 0.00 0.00 0.00 72 1011.7
20190523045827 70 304 0.0 4.0 0.00 0.00 0.00 72 1011.8
20190523045327 70 37 0.0 2.0 0.00 0.00 0.00 72 1011.7
20190523044826 70 73 0.0 4.0 0.00 0.00 0.00 73 1011.8
20190523044328 70 87 0.0 4.0 0.00 0.00 0.00 74 1011.8
20190523043826 71 205 0.0 2.0 0.00 0.00 0.00 75 1011.9
20190523043326 71 27 0.0 4.0 0.00 0.00 0.00 75 1011.9
20190523042826 71 26 1.0 5.0 0.00 0.00 0.00 75 1011.9
20190523042326 71 199 0.0 5.0 0.00 0.00 0.00 76 1012.1
20190523041827 71 85 0.0 1.0 0.00 0.00 0.00 78 1012.1
20190523041325 70 41 0.0 1.0 0.00 0.00 0.00 78 1012.1
20190523040827 70 37 0.0 1.0 0.00 0.00 0.00 79 1012.2
20190523040327 70 53 0.0 1.0 0.00 0.00 0.00 81 1012.2
20190523035828 69 34 0.0 1.0 0.00 0.00 0.00 82 1012.2
20190523035326 69 34 0.0 1.0 0.00 0.00 0.00 84 1012.2
20190523034826 69 27 0.0 0.0 0.00 0.00 0.00 84 1012.2
20190523034326 69 27 0.0 1.0 0.00 0.00 0.00 85 1012.2
20190523033828 69 27 0.0 1.0 0.00 0.00 0.00 85 1012.1
20190523033326 68 27 0.0 1.0 0.00 0.00 0.00 85 1012.0
20190523032827 68 27 0.0 1.0 0.00 0.00 0.00 84 1011.9
20190523032326 68 27 0.0 0.0 0.00 0.00 0.00 85 1011.8
20190523031825 68 27 0.0 0.0 0.00 0.00 0.00 85 1011.7
20190523031325 68 27 0.0 0.0 0.00 0.00 0.00 84 1011.6
20190523030825 68 27 0.0 0.0 0.00 0.00 0.00 85 1011.6
20190523030327 68 27 0.0 0.0 0.00 0.00 0.00 85 1011.5
20190523025826 68 27 0.0 0.0 0.00 0.00 0.00 85 1011.5
20190523025325 68 27 0.0 0.0 0.00 0.00 0.00 85 1011.5
20190523024827 68 27 0.0 0.0 0.00 0.00 0.00 85 1011.4
20190523024326 68 27 0.0 0.0 0.00 0.00 0.00 86 1011.4
20190523023822 67 27 0.0 0.0 0.00 0.00 0.00 86 1011.4
20190523023324 67 27 0.0 0.0 0.00 0.00 0.00 86 1011.4
20190523022822 67 27 0.0 0.0 0.00 0.00 0.00 86 1011.4
20190523022322 67 27 0.0 0.0 0.00 0.00 0.00 86 1011.2
20190523021824 67 27 0.0 0.0 0.00 0.00 0.00 86 1011.3
20190523021323 67 27 0.0 0.0 0.00 0.00 0.00 86 1011.1
20190523020824 67 27 0.0 0.0 0.00 0.00 0.00 86 1011.1
20190523020323 67 27 0.0 0.0 0.00 0.00 0.00 85 1011.0
20190523015822 67 27 0.0 0.0 0.00 0.00 0.00 85 1011.0
20190523015322 67 27 0.0 0.0 0.00 0.00 0.00 85 1010.9
20190523014820 67 27 0.0 0.0 0.00 0.00 0.00 84 1010.9
20190523014321 68 27 0.0 0.0 0.00 0.00 0.00 84 1010.8
20190523013822 68 27 0.0 0.0 0.00 0.00 0.00 83 1010.9
20190523013322 68 27 0.0 0.0 0.00 0.00 0.00 84 1010.9
20190523012821 68 27 0.0 0.0 0.00 0.00 0.00 83 1010.8
20190523012320 68 27 0.0 0.0 0.00 0.00 0.00 83 1010.7
20190523011821 68 27 0.0 0.0 0.00 0.00 0.00 83 1010.7
20190523011322 68 27 0.0 0.0 0.00 0.00 0.00 82 1010.6
20190523010820 69 27 0.0 0.0 0.00 0.00 0.00 82 1010.5
20190523010321 69 27 0.0 0.0 0.00 0.00 0.00 82 1010.5
20190523005819 69 27 0.0 0.0 0.00 0.00 0.00 81 1010.5
20190523005322 69 27 0.0 0.0 0.00 0.00 0.00 81 1010.4
20190523004817 69 27 0.0 0.0 0.00 0.00 0.00 80 1010.4
20190523004318 70 27 0.0 0.0 0.00 0.00 0.00 79 1010.2
20190523003818 70 27 0.0 0.0 0.00 0.00 0.00 79 1010.2
20190523003318 71 27 0.0 0.0 0.00 0.00 0.00 78 1010.3
20190523002819 71 27 0.0 0.0 0.00 0.00 0.00 78 1010.3
20190523002319 71 27 0.0 0.0 0.00 0.00 0.00 77 1010.2
20190523001819 71 27 0.0 0.0 0.00 0.00 0.00 77 1010.2
20190523001319 72 27 0.0 0.0 0.00 0.00 0.00 76 1010.2
20190523000816 72 27 0.0 0.0 0.00 0.00 0.00 76 1010.2
20190523000318 72 27 0.0 0.0 0.00 0.00 0.00 75 1010.2
20190522235816 73 27 0.0 0.0 0.00 0.00 0.00 74 1010.1
20190522235316 73 27 0.0 0.0 0.00 0.00 0.00 75 1010.1
20190522234817 74 27 0.0 0.0 0.00 0.00 0.00 74 1010.1
20190522234317 74 27 0.0 0.0 0.00 0.00 0.00 74 1010.0
20190522233817 74 27 0.0 0.0 0.00 0.00 0.00 74 1010.0
20190522233317 75 27 0.0 0.0 0.00 0.00 0.00 74 1010.0
20190522232818 75 27 0.0 0.0 0.00 0.00 0.00 73 1010.0
20190522232316 75 27 0.0 1.0 0.00 0.00 0.00 72 1010.1
20190522231815 76 27 0.0 1.0 0.00 0.00 0.00 71 1010.1
20190522231318 76 27 0.0 1.0 0.00 0.00 0.00 71 1010.2
20190522230816 76 27 0.0 1.0 0.00 0.00 0.00 71 1010.2
20190522230316 76 27 0.0 1.0 0.00 0.00 0.00 71 1010.2
20190522225817 77 27 0.0 1.0 0.00 0.00 0.00 70 1010.1
20190522225315 77 27 0.0 1.0 0.00 0.00 0.00 70 1010.2
20190522224815 77 27 0.0 1.0 0.00 0.00 0.00 70 1010.1
20190522224317 77 27 0.0 1.0 0.00 0.00 0.00 67 1010.2
20190522223816 78 46 0.0 1.0 0.00 0.00 0.00 68 1010.2
20190522223317 78 46 0.0 1.0 0.00 0.00 0.00 68 1010.3
20190522222814 77 46 0.0 1.0 0.00 0.00 0.00 68 1010.3
20190522222314 78 46 0.0 1.0 0.00 0.00 0.00 69 1010.3
20190522221813 78 50 0.0 1.0 0.00 0.00 0.00 68 1010.3
20190522221313 78 80 0.0 3.0 0.00 0.00 0.00 67 1010.3
20190522220813 78 296 0.0 3.0 0.00 0.00 0.00 64 1010.3
20190522220313 78 11 0.0 1.0 0.00 0.00 0.00 66 1010.3
20190522215813 78 11 0.0 1.0 0.00 0.00 0.00 67 1010.4
20190522215313 78 318 0.0 1.0 0.00 0.00 0.00 64 1010.3
20190522214815 78 32 0.0 1.0 0.00 0.00 0.00 66 1010.4
20190522214314 79 32 0.0 1.0 0.00 0.00 0.00 63 1010.4
20190522213812 80 32 0.0 2.0 0.00 0.00 0.00 56 1010.3
20190522213311 80 357 0.0 2.0 0.00 0.00 0.00 54 1010.3
20190522212810 80 359 0.0 1.0 0.00 0.00 0.00 59 1010.3
20190522212310 80 49 0.0 1.0 0.00 0.00 0.00 54 1010.4
20190522211810 80 55 0.0 1.0 0.00 0.00 0.00 57 1010.4
20190522211311 80 56 0.0 3.0 0.00 0.00 0.00 57 1010.4
20190522210811 80 75 0.0 3.0 0.00 0.00 0.00 54 1010.4
20190522210310 80 71 0.0 2.0 0.00 0.00 0.00 51 1010.4
20190522205811 80 59 0.0 2.0 0.00 0.00 0.00 52 1010.4
20190522205311 80 107 0.0 2.0 0.00 0.00 0.00 51 1010.5
20190522204808 81 300 0.0 3.0 0.00 0.00 0.00 51 1010.5
20190522204308 81 61 0.0 3.0 0.00 0.00 0.00 50 1010.5
20190522203808 81 86 0.0 2.0 0.00 0.00 0.00 48 1010.5
20190522203307 81 354 0.0 3.0 0.00 0.00 0.00 48 1010.4
20190522202810 81 57 1.0 3.0 0.00 0.00 0.00 50 1010.4
20190522202309 81 36 1.0 3.0 0.00 0.00 0.00 49 1010.5
20190522201809 82 7 0.0 3.0 0.00 0.00 0.00 46 1010.5
20190522201309 82 28 0.0 4.0 0.00 0.00 0.00 48 1010.4
20190522200809 82 224 0.0 4.0 0.00 0.00 0.00 47 1010.5
20190522200307 82 60 1.0 4.0 0.00 0.00 0.00 49 1010.5
20190522195807 82 25 0.0 3.0 0.00 0.00 0.00 49 1010.5
20190522195309 81 52 1.0 4.0 0.00 0.00 0.00 52 1010.5
20190522194807 81 55 1.0 6.0 0.00 0.00 0.00 48 1010.5
20190522194307 81 108 1.0 6.0 0.00 0.00 0.00 47 1010.5
20190522193806 82 44 1.0 5.0 0.00 0.00 0.00 49 1010.5
20190522193306 82 91 1.0 5.0 0.00 0.00 0.00 47 1010.5
20190522192807 81 41 1.0 4.0 0.00 0.00 0.00 47 1010.5
20190522192306 82 20 1.0 3.0 0.00 0.00 0.00 47 1010.5
20190522191807 81 56 0.0 3.0 0.00 0.00 0.00 50 1010.6
20190522191307 81 15 0.0 3.0 0.00 0.00 0.00 47 1010.6
20190522190805 81 60 1.0 4.0 0.00 0.00 0.00 47 1010.6
20190522190306 81 36 1.0 4.0 0.00 0.00 0.00 48 1010.6
20190522185804 82 103 1.0 4.0 0.00 0.00 0.00 45 1010.6
20190522185306 82 71 0.0 3.0 0.00 0.00 0.00 47 1010.7
20190522184805 82 91 1.0 3.0 0.00 0.00 0.00 46 1010.7
20190522184305 82 219 1.0 3.0 0.00 0.00 0.00 46 1010.6
20190522183805 82 49 1.0 3.0 0.00 0.00 0.00 45 1010.6
20190522183305 82 70 0.0 3.0 0.00 0.00 0.00 50 1010.7
20190522182805 81 15 1.0 4.0 0.00 0.00 0.00 47 1010.6
20190522182305 81 47 1.0 4.0 0.00 0.00 0.00 47 1010.8
20190522181804 81 77 1.0 4.0 0.00 0.00 0.00 48 1010.6
20190522181303 81 40 1.0 4.0 0.00 0.00 0.00 46 1010.7
20190522180802 81 94 1.0 4.0 0.00 0.00 0.00 47 1010.7
20190522180301 80 93 1.0 4.0 0.00 0.00 0.00 48 1010.7
20190522175803 79 98 0.0 3.0 0.00 0.00 0.00 50 1010.8
20190522175301 79 44 1.0 3.0 0.00 0.00 0.00 45 1010.8
20190522174803 79 120 1.0 3.0 0.00 0.00 0.00 47 1010.8
20190522174303 79 316 1.0 6.0 0.00 0.00 0.00 48 1010.8
20190522173802 80 104 1.0 6.0 0.00 0.00 0.00 47 1010.7
20190522173303 80 64 1.0 5.0 0.00 0.00 0.00 50 1010.8
20190522172801 79 49 1.0 4.0 0.00 0.00 0.00 49 1010.8
20190522172301 79 63 0.0 3.0 0.00 0.00 0.00 51 1010.8
20190522171800 78 44 1.0 5.0 0.00 0.00 0.00 48 1010.9
20190522171301 79 92 2.0 5.0 0.00 0.00 0.00 47 1010.8
20190522170801 79 80 1.0 5.0 0.00 0.00 0.00 48 1010.7
20190522170259 78 320 1.0 5.0 0.00 0.00 0.00 50 1010.7
20190522165757 78 65 1.0 5.0 0.00 0.00 0.00 51 1010.8
20190522165258 78 68 0.0 2.0 0.00 0.00 0.00 51 1010.9
20190522164757 78 58 0.0 3.0 0.00 0.00 0.00 51 1010.9
20190522164259 78 19 1.0 4.0 0.00 0.00 0.00 52 1010.8
20190522163757 78 85 1.0 6.0 0.00 0.00 0.00 51 1010.7
20190522163257 78 71 1.0 6.0 0.00 0.00 0.00 52 1010.7
20190522162809 78 40 0.0 3.0 0.00 0.00 0.00 53 1010.6
20190522162254 77 49 1.0 4.0 0.00 0.00 0.00 51 1010.6
20190522161755 77 56 1.0 6.0 0.00 0.00 0.00 51 1010.6
20190522161259 77 63 1.0 6.0 0.00 0.00 0.00 50 1010.6
20190522160755 77 116 1.0 6.0 0.00 0.00 0.00 51 1010.6
20190522160252 78 20 1.0 6.0 0.00 0.00 0.00 50 1010.6
20190522155759 77 25 2.0 6.0 0.00 0.00 0.00 51 1010.4
20190522155249 77 66 2.0 6.0 0.00 0.00 0.00 51 1010.4
20190522154750 77 93 2.0 6.0 0.00 0.00 0.00 51 1010.3
20190522154251 77 262 1.0 4.0 0.00 0.00 0.00 52 1010.4
20190522153749 77 32 1.0 8.0 0.00 0.00 0.00 53 1010.3
20190522153250 77 69 2.0 8.0 0.00 0.00 0.00 51 1010.5
20190522152751 76 84 2.0 5.0 0.00 0.00 0.00 53 1010.5
20190522152250 76 55 1.0 8.0 0.00 0.00 0.00 54 1010.5
20190522151751 76 103 0.0 8.0 0.00 0.00 0.00 53 1010.5
20190522151249 76 354 1.0 6.0 0.00 0.00 0.00 53 1010.4
20190522150751 75 46 1.0 6.0 0.00 0.00 0.00 54 1010.5
20190522150251 75 75 1.0 5.0 0.00 0.00 0.00 55 1010.5
20190522145750 75 63 1.0 5.0 0.00 0.00 0.00 57 1010.5
20190522145251 75 95 1.0 4.0 0.00 0.00 0.00 56 1010.5
20190522144751 74 27 1.0 4.0 0.00 0.00 0.00 57 1010.6
20190522144249 74 58 1.0 6.0 0.00 0.00 0.00 59 1010.6
20190522143750 73 53 1.0 6.0 0.00 0.00 0.00 58 1010.6
20190522143249 73 103 1.0 5.0 0.00 0.00 0.00 59 1010.6
20190522142748 72 53 1.0 4.0 0.00 0.00 0.00 60 1010.6
20190522142248 72 101 1.0 4.0 0.00 0.00 0.00 59 1010.6
20190522141745 72 57 1.0 3.0 0.00 0.00 0.00 59 1010.6
20190522141247 72 33 1.0 6.0 0.00 0.00 0.00 62 1010.5
20190522140745 71 80 1.0 6.0 0.00 0.00 0.00 61 1010.6
20190522140245 71 32 0.0 4.0 0.00 0.00 0.00 62 1010.6
20190522135746 71 43 0.0 2.0 0.00 0.00 0.00 63 1010.5
20190522135246 71 29 0.0 3.0 0.00 0.00 0.00 63 1010.6
20190522134743 70 6 0.0 4.0 0.00 0.00 0.00 62 1010.6
20190522134243 70 103 1.0 4.0 0.00 0.00 0.00 62 1010.6
20190522133741 70 47 1.0 4.0 0.00 0.00 0.00 65 1010.7
20190522133241 70 75 1.0 5.0 0.00 0.00 0.00 64 1010.7
20190522132740 70 75 0.0 5.0 0.00 0.00 0.00 63 1010.8
20190522132239 70 83 0.0 3.0 0.00 0.00 0.00 65 1010.7
20190522131739 69 52 1.0 5.0 0.00 0.00 0.00 66 1010.7